| time (UTC) | temp F | wind direction | speed MPH | gust MPH | rain 1hr in | rain 24hr in | rain mn in | humidity % | barometer mb |
| 20260507124527 | 62 | 293 | 1.0 | 4.0 | 0.08 | 2.32 | 1.12 | 98 | 1011.8 |
| 20260507123038 | 62 | 325 | 2.0 | 9.0 | 0.03 | 2.26 | 1.05 | 98 | 1011.6 |
| 20260507121527 | 62 | 56 | 3.0 | 6.0 | 0.06 | 2.24 | 1.04 | 98 | 1010.6 |
| 20260507120027 | 62 | 198 | 1.0 | 2.0 | 0.11 | 2.24 | 1.04 | 98 | 1010.9 |
| 20260507114529 | 62 | 0 | 0.0 | 5.0 | 0.18 | 2.24 | 1.04 | 98 | 1011.3 |
| 20260507113030 | 62 | 134 | 1.0 | 6.0 | 0.18 | 2.22 | 1.02 | 98 | 1010.4 |
| 20260507111536 | 62 | 45 | 3.0 | 10.0 | 0.15 | 2.18 | 0.98 | 98 | 1010.8 |
| 20260507110033 | 62 | 37 | 7.0 | 12.0 | 0.09 | 2.11 | 0.92 | 98 | 1011.6 |
| 20260507104528 | 62 | 24 | 3.0 | 5.0 | 0.04 | 2.05 | 0.85 | 98 | 1011.4 |
| 20260507100033 | 62 | 32 | 1.0 | 3.0 | 0.04 | 2.03 | 0.83 | 98 | 1011.2 |
| 20260507094531 | 62 | 355 | 2.0 | 6.0 | 0.02 | 2.01 | 0.81 | 98 | 1011.1 |
| 20260507093040 | 62 | 285 | 3.0 | 6.0 | 0.01 | 1.99 | 0.79 | 98 | 1011.6 |
| 20260507084531 | 62 | 255 | 2.0 | 4.0 | 0.11 | 1.99 | 0.79 | 98 | 1011.5 |
| 20260507083030 | 62 | 0 | 0.0 | 2.0 | 0.14 | 1.98 | 0.78 | 97 | 1010.7 |
| 20260507081535 | 62 | 186 | 1.0 | 3.0 | 0.18 | 1.95 | 0.75 | 97 | 1011.8 |
| 20260507080027 | 62 | 0 | 1.0 | 6.0 | 0.20 | 1.93 | 0.73 | 97 | 1011.6 |
| 20260507074529 | 62 | 325 | 3.0 | 5.0 | 0.18 | 1.88 | 0.68 | 98 | 1012.5 |
| 20260507073029 | 62 | 245 | 2.0 | 5.0 | 0.15 | 1.84 | 0.64 | 98 | 1012.1 |
| 20260507071529 | 62 | 248 | 3.0 | 6.0 | 0.09 | 1.77 | 0.57 | 98 | 1012.2 |
| 20260507070030 | 62 | 317 | 2.0 | 7.0 | 0.08 | 1.73 | 0.52 | 98 | 1012.5 |
| 20260507064530 | 62 | 225 | 2.0 | 5.0 | 0.11 | 1.70 | 0.50 | 97 | 1012.4 |
| 20260507063030 | 62 | 184 | 3.0 | 5.0 | 0.15 | 1.69 | 0.49 | 97 | 1012.2 |
| 20260507061533 | 62 | 34 | 1.0 | 3.0 | 0.21 | 1.68 | 0.48 | 97 | 1012.9 |
| 20260507060030 | 63 | 34 | 2.0 | 8.0 | 0.22 | 1.65 | 0.45 | 97 | 1013.3 |
| 20260507054527 | 63 | 274 | 1.0 | 7.0 | 0.26 | 1.59 | 0.39 | 97 | 1013.2 |
| 20260507053028 | 63 | 293 | 4.0 | 7.0 | 0.26 | 1.53 | 0.33 | 97 | 1013.8 |
| 20260507051528 | 63 | 28 | 0.0 | 6.0 | 0.24 | 1.47 | 0.27 | 97 | 1013.7 |
| 20260507050036 | 63 | 341 | 6.0 | 11.0 | 0.21 | 1.41 | 0.21 | 97 | 1014.5 |
| 20260507044528 | 63 | 355 | 3.0 | 9.0 | 0.12 | 1.31 | 0.11 | 97 | 1014.2 |
| 20260507043030 | 63 | 0 | 0.0 | 4.0 | 0.08 | 1.27 | 0.07 | 97 | 1013.2 |
| 20260507041546 | 63 | 0 | 0.0 | 7.0 | 0.03 | 1.22 | 0.02 | 97 | 1013.6 |
| 20260507040026 | 63 | 247 | 2.0 | 5.0 | 0.02 | 1.20 | 0.00 | 97 | 1014.0 |
| 20260507034528 | 63 | 256 | 4.0 | 7.0 | 0.01 | 1.19 | 1.19 | 97 | 1013.8 |
| 20260507033034 | 63 | 149 | 0.0 | 3.0 | 0.01 | 1.19 | 1.19 | 97 | 1013.3 |
| 20260507031528 | 63 | 159 | 2.0 | 5.0 | 0.01 | 1.19 | 1.19 | 97 | 1013.3 |
| 20260507030028 | 63 | 190 | 0.0 | 4.0 | 0.00 | 1.17 | 1.17 | 96 | 1013.6 |
| 20260507024527 | 63 | 212 | 5.0 | 7.0 | 0.03 | 1.17 | 1.17 | 96 | 1013.5 |
| 20260507023026 | 63 | 205 | 5.0 | 9.0 | 0.06 | 1.17 | 1.17 | 96 | 1013.6 |
| 20260507021526 | 63 | 130 | 1.0 | 3.0 | 0.06 | 1.17 | 1.17 | 96 | 1013.5 |
| 20260507020028 | 63 | 134 | 0.0 | 0.0 | 0.07 | 1.17 | 1.17 | 96 | 1013.9 |
| 20260507014547 | 63 | 0 | 0.0 | 4.0 | 0.09 | 1.15 | 1.15 | 96 | 1014.0 |
| 20260507013041 | 63 | 0 | 0.0 | 5.0 | 0.81 | 1.12 | 1.12 | 95 | 1014.5 |
| 20260507011537 | 63 | 0 | 0.0 | 2.0 | 1.08 | 1.12 | 1.12 | 95 | 1014.5 |
| 20260507010032 | 64 | 33 | 1.0 | 4.0 | 1.07 | 1.11 | 1.11 | 95 | 1014.5 |
| 20260507004529 | 64 | 34 | 1.0 | 15.0 | 1.01 | 1.04 | 1.04 | 94 | 1014.7 |
| 20260507003026 | 64 | 313 | 13.0 | 21.0 | 0.20 | 0.24 | 0.24 | 94 | 1016.3 |
| 20260507001530 | 64 | 90 | 3.0 | 13.0 | 0.01 | 0.04 | 0.04 | 93 | 1011.9 |
| 20260507000030 | 65 | 117 | 6.0 | 12.0 | 0.01 | 0.04 | 0.04 | 92 | 1011.8 |
| 20260506234527 | 65 | 78 | 5.0 | 11.0 | 0.01 | 0.04 | 0.04 | 90 | 1012.9 |
| 20260506233026 | 66 | 82 | 7.0 | 15.0 | 0.01 | 0.04 | 0.04 | 88 | 1013.1 |
| 20260506231528 | 69 | 15 | 4.0 | 14.0 | 0.00 | 0.03 | 0.03 | 84 | 1013.7 |
| 20260506230031 | 71 | 38 | 10.0 | 20.0 | 0.00 | 0.03 | 0.03 | 79 | 1013.4 |
| 20260506224530 | 73 | 45 | 6.0 | 10.0 | 0.00 | 0.03 | 0.03 | 79 | 1013.2 |
| 20260506223029 | 75 | 49 | 5.0 | 9.0 | 0.00 | 0.03 | 0.03 | 76 | 1012.5 |
| 20260506221527 | 75 | 0 | 0.0 | 2.0 | 0.00 | 0.03 | 0.03 | 75 | 1012.1 |
| 20260506220026 | 75 | 154 | 1.0 | 3.0 | 0.00 | 0.03 | 0.03 | 75 | 1012.1 |
| 20260506214528 | 75 | 185 | 4.0 | 8.0 | 0.00 | 0.03 | 0.03 | 74 | 1012.2 |
| 20260506213027 | 75 | 192 | 1.0 | 4.0 | 0.00 | 0.03 | 0.03 | 74 | 1012.2 |
| 20260506211530 | 74 | 0 | 0.0 | 1.0 | 0.00 | 0.03 | 0.03 | 78 | 1012.9 |
| 20260506210036 | 74 | 0 | 0.0 | 4.0 | 0.00 | 0.03 | 0.03 | 75 | 1013.3 |
| 20260506204529 | 74 | 329 | 2.0 | 5.0 | 0.00 | 0.03 | 0.03 | 75 | 1013.7 |
| 20260506203026 | 74 | 269 | 4.0 | 8.0 | 0.00 | 0.03 | 0.03 | 74 | 1013.6 |
| 20260506201528 | 74 | 284 | 3.0 | 9.0 | 0.00 | 0.03 | 0.03 | 75 | 1013.7 |
| 20260506200028 | 74 | 244 | 5.0 | 12.0 | 0.00 | 0.03 | 0.03 | 76 | 1014.1 |
| 20260506194527 | 74 | 233 | 8.0 | 13.0 | 0.00 | 0.03 | 0.03 | 74 | 1014.3 |
| 20260506193027 | 74 | 265 | 5.0 | 11.0 | 0.00 | 0.03 | 0.03 | 75 | 1014.3 |
| 20260506191531 | 74 | 271 | 7.0 | 12.0 | 0.00 | 0.03 | 0.03 | 76 | 1014.6 |
| 20260506190028 | 74 | 315 | 4.0 | 12.0 | 0.00 | 0.03 | 0.03 | 77 | 1014.9 |
| 20260506184527 | 73 | 256 | 6.0 | 11.0 | 0.00 | 0.03 | 0.03 | 78 | 1015.0 |
| 20260506183026 | 73 | 304 | 5.0 | 10.0 | 0.00 | 0.03 | 0.03 | 81 | 1015.1 |
| 20260506181531 | 72 | 299 | 3.0 | 8.0 | 0.00 | 0.03 | 0.03 | 83 | 1015.0 |
| 20260506180039 | 70 | 290 | 2.0 | 9.0 | 0.00 | 0.03 | 0.03 | 83 | 1015.0 |
| 20260506174529 | 70 | 267 | 4.0 | 9.0 | 0.00 | 0.03 | 0.03 | 83 | 1015.1 |
| 20260506173027 | 69 | 225 | 4.0 | 7.0 | 0.03 | 0.03 | 0.03 | 87 | 1015.1 |
| 20260506171543 | 68 | 287 | 3.0 | 7.0 | 0.03 | 0.03 | 0.03 | 86 | 1015.5 |
| 20260506170026 | 68 | 307 | 2.0 | 6.0 | 0.03 | 0.03 | 0.03 | 87 | 1015.9 |
| 20260506164528 | 68 | 250 | 2.0 | 8.0 | 0.03 | 0.03 | 0.03 | 84 | 1015.7 |
| 20260506163034 | 68 | 221 | 9.0 | 15.0 | 0.00 | 0.00 | 0.00 | 82 | 1016.5 |
| 20260506161539 | 68 | 255 | 9.0 | 12.0 | 0.00 | 0.00 | 0.00 | 80 | 1016.6 |
| 20260506160029 | 68 | 277 | 7.0 | 15.0 | 0.00 | 0.00 | 0.00 | 80 | 1016.4 |
| 20260506154530 | 68 | 288 | 7.0 | 12.0 | 0.00 | 0.00 | 0.00 | 81 | 1016.1 |
| 20260506153028 | 68 | 221 | 7.0 | 13.0 | 0.00 | 0.00 | 0.00 | 81 | 1015.9 |
| 20260506151528 | 68 | 236 | 8.0 | 15.0 | 0.00 | 0.00 | 0.00 | 81 | 1015.7 |
| 20260506150029 | 67 | 248 | 5.0 | 10.0 | 0.00 | 0.00 | 0.00 | 81 | 1015.8 |
| 20260506144529 | 67 | 243 | 8.0 | 14.0 | 0.00 | 0.00 | 0.00 | 81 | 1015.4 |
| 20260506143028 | 66 | 244 | 9.0 | 13.0 | 0.00 | 0.00 | 0.00 | 80 | 1015.4 |
| 20260506141528 | 66 | 238 | 8.0 | 14.0 | 0.00 | 0.00 | 0.00 | 80 | 1015.1 |
| 20260506140026 | 66 | 236 | 6.0 | 14.0 | 0.00 | 0.00 | 0.00 | 80 | 1014.9 |
| 20260506134602 | 65 | 238 | 8.0 | 14.0 | 0.00 | 0.00 | 0.00 | 79 | 1015.1 |
| 20260506133026 | 65 | 216 | 6.0 | 14.0 | 0.00 | 0.00 | 0.00 | 79 | 1015.1 |
| 20260506131532 | 64 | 227 | 6.0 | 11.0 | 0.00 | 0.00 | 0.00 | 78 | 1015.0 |
| 20260506130030 | 64 | 213 | 5.0 | 11.0 | 0.00 | 0.00 | 0.00 | 78 | 1015.2 |